TimeMST,TemperatureF,Dew PointF,Humidity,Sea Level PressureIn,VisibilityMPH,Wind Direction,Wind SpeedMPH,Gust SpeedMPH,PrecipitationIn,Events,Conditions,WindDirDegrees,DateUTC
12:58 AM,57.6,37.9,48,29.78,10.0,SE,8.1,-,N/A,,Partly Cloudy,140,2013-11-21 07:58:00
1:58 AM,55.9,36.7,48,29.79,10.0,South,8.1,-,N/A,,Clear,170,2013-11-21 08:58:00
2:58 AM,54.1,36.1,51,29.79,10.0,SSE,6.9,-,N/A,,Clear,150,2013-11-21 09:58:00
3:58 AM,54.5,36.1,50,29.80,10.0,SE,2.3,-,N/A,,Partly Cloudy,140,2013-11-21 10:58:00
4:58 AM,53.4,36.0,52,29.83,10.0,Calm,Calm,-,N/A,,Clear,0,2013-11-21 11:58:00
5:58 AM,53.1,36.1,53,29.86,10.0,Calm,Calm,-,N/A,,Clear,0,2013-11-21 12:58:00
6:58 AM,50.0,36.3,59,29.90,10.0,SSE,2.3,-,N/A,,Clear,160,2013-11-21 13:58:00
7:58 AM,54.5,37.2,52,29.89,10.0,SE,3.5,-,N/A,,Clear,130,2013-11-21 14:58:00
8:58 AM,58.5,37.4,45,29.90,10.0,SSE,8.1,-,N/A,,Clear,150,2013-11-21 15:58:00
9:58 AM,63.3,35.8,36,29.91,10.0,South,5.8,-,N/A,,Clear,190,2013-11-21 16:58:00
10:58 AM,66.6,34.7,31,29.90,10.0,SSE,3.5,-,N/A,,Clear,150,2013-11-21 17:58:00
11:58 AM,67.6,33.3,28,29.87,10.0,WNW,2.3,-,N/A,,Clear,290,2013-11-21 18:58:00
12:58 PM,68.2,33.4,28,29.84,10.0,NW,5.8,-,N/A,,Clear,310,2013-11-21 19:58:00
1:58 PM,68.2,33.8,28,29.83,10.0,Variable,3.5,-,N/A,,Clear,0,2013-11-21 20:58:00
2:58 PM,70.2,34.9,27,29.84,10.0,Calm,Calm,-,N/A,,Clear,0,2013-11-21 21:58:00
3:58 PM,69.1,34.9,28,29.86,10.0,South,5.8,-,N/A,,Clear,180,2013-11-21 22:58:00
4:58 PM,67.5,35.4,31,29.86,10.0,SE,5.8,-,N/A,,Partly Cloudy,140,2013-11-21 23:58:00
5:58 PM,64.8,38.3,38,29.89,10.0,SSE,8.1,-,N/A,,Clear,160,2013-11-22 00:58:00
6:58 PM,64.4,37.2,37,29.92,10.0,SSE,6.9,-,N/A,,Partly Cloudy,160,2013-11-22 01:58:00
7:58 PM,63.3,38.1,39,29.91,10.0,SSE,8.1,-,N/A,,Clear,160,2013-11-22 02:58:00
8:58 PM,61.2,37.0,41,29.89,10.0,South,6.9,-,N/A,,Clear,180,2013-11-22 03:58:00
9:58 PM,60.6,36.5,41,29.88,10.0,South,6.9,-,N/A,,Clear,180,2013-11-22 04:58:00
10:58 PM,58.1,36.0,44,29.90,10.0,WSW,5.8,-,N/A,,Clear,250,2013-11-22 05:58:00
11:58 PM,57.6,34.5,42,29.88,10.0,SSW,8.1,-,N/A,,Clear,210,2013-11-22 06:58:00